When you browse on this site, cookies collect data to enhance your experience and personalize the content and advertising you see.
Visit our Privacy Policy to learn more. By continuing to use the site, you agree to this use of cookies and data.
  • In Hungary
  • List of Countries
  • For 7 days
  • Water Temperature
  • Satellite Maps
  • Weather Map
  • News
  • Weather Widgets
  • user-avatar
    Login

    Hourly Weather Dżambi

    Today, 19 July, Friday

    Time Temperature Precipitation Wind Pressure Humidity
    00:00 +25°C° 0 mm 1 mps 755 mmHg 84%
    01:00 +24°C° 0 mm 1 mps 755 mmHg 82%
    02:00 +24°C° 0 mm 1 mps 755 mmHg 85%
    03:00 +23°C° 0 mm 1 mps 754 mmHg 88%
    04:00 +23°C° 0 mm 1 mps 754 mmHg 91%
    05:00 +23°C° 0 mm 1 mps 754 mmHg 91%
    06:00 +23°C° 0 mm 1 mps 754 mmHg 91%
    07:00 +24°C° 0 mm 1 mps 755 mmHg 90%
    08:00 +26°C° 0 mm 1 mps 755 mmHg 81%
    09:00 +28°C° 0 mm 2 mps 755 mmHg 72%
    10:00 +31°C° 0 mm 2 mps 756 mmHg 62%
    11:00 +32°C° 0 mm 2 mps 755 mmHg 57%
    12:00 +34°C° 0 mm 2 mps 754 mmHg 52%
    13:00 +36°C° 0 mm 2 mps 754 mmHg 45%
    14:00 +36°C° 0 mm 2 mps 753 mmHg 46%
    15:00 +35°C° 0 mm 2 mps 753 mmHg 46%
    16:00 +34°C° 0 mm 1 mps 752 mmHg 47%
    17:00 +32°C° 0 mm 1 mps 752 mmHg 54%
    18:00 +28°C° 0 mm 0 mps 753 mmHg 61%
    19:00 +27°C° 0 mm 0 mps 753 mmHg 66%
    20:00 +26°C° 0 mm 0 mps 754 mmHg 71%
    21:00 +26°C° 0 mm 0 mps 754 mmHg 75%
    22:00 +25°C° 0 mm 0 mps 754 mmHg 80%
    23:00 +25°C° 0 mm 0 mps 755 mmHg 82%

    Tomorrow, 20 July, Saturday

    Time Temperature Precipitation Wind Pressure Humidity
    00:00 +25°C° 0 mm 0 mps 755 mmHg 85%
    01:00 +26°C° 0 mm 1 mps 755 mmHg 87%
    02:00 +26°C° 0 mm 1 mps 754 mmHg 90%
    03:00 +25°C° 0 mm 1 mps 754 mmHg 93%
    04:00 +25°C° 0 mm 1 mps 754 mmHg 96%
    05:00 +25°C° 0 mm 1 mps 754 mmHg 95%
    06:00 +25°C° 0 mm 1 mps 755 mmHg 95%
    07:00 +25°C° 0 mm 1 mps 755 mmHg 94%
    08:00 +27°C° 0 mm 1 mps 755 mmHg 85%
    09:00 +29°C° 0 mm 1 mps 755 mmHg 75%
    10:00 +32°C° 0 mm 2 mps 755 mmHg 66%
    11:00 +33°C° 0.1 mm 1 mps 755 mmHg 60%
    12:00 +34°C° 0.1 mm 1 mps 754 mmHg 54%
    13:00 +35°C° 0.1 mm 1 mps 754 mmHg 48%
    14:00 +35°C° 0 mm 1 mps 753 mmHg 49%
    15:00 +35°C° 0 mm 1 mps 752 mmHg 51%
    16:00 +32°C° 0 mm 0 mps 752 mmHg 52%
    17:00 +31°C° 0 mm 0 mps 752 mmHg 58%
    18:00 +29°C° 0 mm 0 mps 753 mmHg 65%
    19:00 +27°C° 0 mm 0 mps 753 mmHg 71%
    20:00 +26°C° 0 mm 0 mps 754 mmHg 75%
    21:00 +26°C° 0 mm 0 mps 754 mmHg 79%
    22:00 +27°C° 0 mm 1 mps 755 mmHg 83%
    23:00 +27°C° 0.3 mm 1 mps 755 mmHg 87%

    Day after tomorrow, 21 July, Sunday

    Time Temperature Precipitation Wind Pressure Humidity
    00:00 +26°C° 0.3 mm 1 mps 755 mmHg 91%
    01:00 +26°C° 0.3 mm 1 mps 755 mmHg 95%
    02:00 +26°C° 0.9 mm 1 mps 754 mmHg 96%
    03:00 +25°C° 0.9 mm 1 mps 754 mmHg 97%
    04:00 +25°C° 0.9 mm 1 mps 754 mmHg 98%
    05:00 +25°C° 0.2 mm 1 mps 754 mmHg 98%
    06:00 +25°C° 0.2 mm 1 mps 754 mmHg 97%
    07:00 +25°C° 0.2 mm 1 mps 755 mmHg 97%
    08:00 +27°C° 0.9 mm 2 mps 755 mmHg 93%
    09:00 +28°C° 0.9 mm 2 mps 755 mmHg 89%
    10:00 +30°C° 0.9 mm 2 mps 755 mmHg 85%
    11:00 +30°C° 1.5 mm 2 mps 755 mmHg 84%
    12:00 +30°C° 1.5 mm 2 mps 754 mmHg 82%
    13:00 +31°C° 1.5 mm 2 mps 754 mmHg 80%
    14:00 +31°C° 1.4 mm 1 mps 753 mmHg 80%
    15:00 +31°C° 1.4 mm 1 mps 753 mmHg 79%
    16:00 +31°C° 1.4 mm 1 mps 752 mmHg 79%
    17:00 +29°C° 0.8 mm 1 mps 753 mmHg 83%
    18:00 +26°C° 0.8 mm 0 mps 753 mmHg 88%
    19:00 +25°C° 0.8 mm 0 mps 753 mmHg 92%
    20:00 +25°C° 0.2 mm 0 mps 754 mmHg 93%
    21:00 +24°C° 0.2 mm 0 mps 754 mmHg 94%
    22:00 +24°C° 0.2 mm 0 mps 755 mmHg 95%
    23:00 +24°C° 0 mm 0 mps 755 mmHg 95%

    22 July, Monday

    Time Temperature Precipitation Wind Pressure Humidity
    00:00 +24°C° 0 mm 0 mps 754 mmHg 96%
    01:00 +23°C° 0 mm 0 mps 754 mmHg 97%
    02:00 +23°C° 0 mm 0 mps 754 mmHg 97%
    03:00 +25°C° 0 mm 1 mps 754 mmHg 98%
    04:00 +25°C° 0 mm 1 mps 753 mmHg 98%
    05:00 +25°C° 0 mm 1 mps 754 mmHg 98%
    06:00 +25°C° 0 mm 1 mps 754 mmHg 97%
    07:00 +25°C° 0 mm 1 mps 754 mmHg 97%
    08:00 +26°C° 0.7 mm 1 mps 755 mmHg 94%
    09:00 +27°C° 0.7 mm 1 mps 755 mmHg 92%
    10:00 +28°C° 0.7 mm 1 mps 755 mmHg 89%
    11:00 +28°C° 0.7 mm 1 mps 755 mmHg 90%
    12:00 +28°C° 0.7 mm 1 mps 754 mmHg 91%
    13:00 +26°C° 0.7 mm 0 mps 754 mmHg 91%
    14:00 +26°C° 0.2 mm 0 mps 753 mmHg 91%
    15:00 +26°C° 0.2 mm 0 mps 753 mmHg 91%
    16:00 +25°C° 0.2 mm 0 mps 753 mmHg 91%
    17:00 +25°C° 0 mm 0 mps 753 mmHg 92%
    18:00 +24°C° 0 mm 0 mps 754 mmHg 93%
    19:00 +24°C° 0 mm 0 mps 754 mmHg 94%
    20:00 +23°C° 0.7 mm 0 mps 755 mmHg 95%
    21:00 +23°C° 0.7 mm 0 mps 755 mmHg 96%
    22:00 +23°C° 0.7 mm 0 mps 756 mmHg 96%
    23:00 +23°C° 1.4 mm 0 mps 755 mmHg 97%

    23 July, Tuesday

    Time Temperature Precipitation Wind Pressure Humidity
    00:00 +23°C° 1.4 mm 0 mps 755 mmHg 97%
    01:00 +23°C° 1.4 mm 0 mps 755 mmHg 98%
    02:00 +23°C° 1.4 mm 0 mps 755 mmHg 98%
    03:00 +23°C° 1.4 mm 0 mps 754 mmHg 98%
    04:00 +25°C° 1.4 mm 1 mps 754 mmHg 97%
    05:00 +25°C° 1 mm 1 mps 755 mmHg 97%
    06:00 +25°C° 1 mm 1 mps 755 mmHg 98%
    07:00 +24°C° 1 mm 1 mps 756 mmHg 98%
    08:00 +25°C° 0.1 mm 1 mps 756 mmHg 97%
    09:00 +25°C° 0.1 mm 1 mps 756 mmHg 97%
    10:00 +23°C° 0.1 mm 0 mps 756 mmHg 96%
    11:00 +24°C° 0 mm 0 mps 756 mmHg 95%
    12:00 +24°C° 0 mm 0 mps 755 mmHg 95%
    13:00 +24°C° 0 mm 0 mps 755 mmHg 94%
    14:00 +24°C° 0.1 mm 0 mps 754 mmHg 94%
    15:00 +24°C° 0.1 mm 0 mps 754 mmHg 94%
    16:00 +24°C° 0.1 mm 0 mps 754 mmHg 94%
    17:00 +24°C° 0.1 mm 0 mps 754 mmHg 94%
    18:00 +23°C° 0.1 mm 0 mps 755 mmHg 94%
    19:00 +23°C° 0.1 mm 0 mps 755 mmHg 94%
    20:00 +23°C° 0 mm 0 mps 756 mmHg 94%
    21:00 +25°C° 0 mm 1 mps 756 mmHg 94%
    22:00 +25°C° 0 mm 1 mps 757 mmHg 94%
    23:00 +24°C° 0 mm 1 mps 757 mmHg 95%

    24 July, Wednesday

    Time Temperature Precipitation Wind Pressure Humidity
    00:00 +24°C° 0 mm 1 mps 757 mmHg 95%
    01:00 +24°C° 0 mm 2 mps 757 mmHg 95%
    02:00 +24°C° 0 mm 1 mps 756 mmHg 95%
    03:00 +24°C° 0 mm 1 mps 756 mmHg 96%
    04:00 +24°C° 0 mm 1 mps 756 mmHg 96%
    05:00 +24°C° 0 mm 1 mps 756 mmHg 96%
    06:00 +24°C° 0 mm 1 mps 757 mmHg 95%
    07:00 +24°C° 0 mm 1 mps 758 mmHg 94%
    08:00 +23°C° 0 mm 2 mps 758 mmHg 91%
    09:00 +23°C° 0 mm 2 mps 758 mmHg 87%
    10:00 +23°C° 0 mm 2 mps 759 mmHg 83%
    11:00 +24°C° 0 mm 2 mps 758 mmHg 81%
    12:00 +24°C° 0 mm 2 mps 758 mmHg 79%
    13:00 +25°C° 0 mm 2 mps 757 mmHg 77%
    14:00 +25°C° 0 mm 2 mps 756 mmHg 80%
    15:00 +25°C° 0 mm 1 mps 756 mmHg 83%
    16:00 +24°C° 0 mm 1 mps 756 mmHg 86%
    17:00 +24°C° 0 mm 1 mps 756 mmHg 88%
    18:00 +21°C° 0 mm 0 mps 756 mmHg 90%
    19:00 +21°C° 0 mm 0 mps 757 mmHg 92%
    20:00 +21°C° 0 mm 0 mps 757 mmHg 92%
    21:00 +23°C° 0 mm 1 mps 757 mmHg 91%
    22:00 +23°C° 0 mm 1 mps 758 mmHg 90%
    23:00 +23°C° 0 mm 1 mps 757 mmHg 89%
    Show more